Vorticity
nan nan nan nan nan nan nan nan nan nan nan nan nan nan nan nan nan nan nan nan nan nan nan nan nan nan nan nan nan nan nan nan nan nan nan nan nan nan nan nan nan nan nan nan nan nan nan nan nan nan nan nan nan nan nan nan nan nan nan nan nan nan nan nan nan nan nan nan nan
nan 9 10 10 11 10 9 9 8 9 9 9 8 8 9 9 8 8 8 9 10 10 10 8 7 7 6 7 8 8 8 8 8 8 8 7 7 8 9 8 8 8 8 8 9 8 7 7 8 9 9 9 9 8 8 9 10 11 10 9 7 6 6 6 7 7 6 5 nan
nan 8 9 10 11 11 10 9 9 9 9 9 9 9 9 9 8 8 7 8 9 10 10 9 7 7 7 7 8 8 7 8 8 9 9 7 7 8 9 9 8 8 8 8 8 8 7 7 8 8 9 9 9 9 9 9 10 10 9 7 6 7 7 7 7 5 4 6 nan
nan 7 8 9 10 11 11 10 10 9 8 8 8 8 8 8 8 8 7 7 8 9 9 9 8 7 7 7 7 8 7 8 9 9 9 8 7 7 8 9 9 9 8 8 8 8 8 8 9 8 8 8 9 10 10 10 10 9 8 7 8 9 8 8 7 6 7 8 nan
nan 6 7 7 9 10 10 11 10 9 8 8 8 8 8 8 7 7 7 7 8 8 8 9 9 8 7 7 7 7 8 8 9 10 9 8 8 8 8 8 9 9 8 9 8 8 8 10 10 9 8 9 9 9 9 10 10 9 8 8 9 10 10 9 8 8 9 9 nan
nan 6 7 7 8 9 9 10 9 9 9 9 9 9 8 8 8 7 7 8 7 7 7 8 9 8 8 7 7 8 8 8 9 9 8 8 8 7 8 7 8 9 9 9 9 9 9 11 11 9 9 10 10 9 9 9 9 9 9 9 10 10 11 10 9 9 11 12 nan
nan 7 7 7 8 8 8 9 8 8 9 9 10 9 8 8 8 8 7 8 8 8 8 7 8 7 7 8 8 8 8 9 9 8 8 8 7 7 8 8 8 8 9 9 10 10 10 11 11 10 10 10 10 10 10 10 10 9 9 9 9 10 10 9 9 11 14 13 nan
nan 8 7 7 7 8 9 8 8 8 8 9 10 10 9 8 8 7 7 7 8 8 8 7 7 7 7 8 7 7 8 8 9 9 8 8 8 8 8 9 8 8 9 10 10 10 10 11 11 10 10 10 10 10 11 12 13 12 10 8 8 9 9 9 10 13 15 12 nan
nan 9 8 7 7 8 8 8 8 9 9 10 10 9 8 8 8 7 7 8 8 8 7 7 6 7 7 8 8 8 8 8 8 8 8 9 8 8 9 9 9 10 9 10 10 10 11 10 10 10 10 10 10 11 11 13 14 13 11 8 8 9 10 11 12 13 12 11 nan
nan 9 8 8 8 8 8 8 8 9 9 10 9 9 8 8 8 8 7 8 9 8 7 7 7 7 7 8 8 8 8 8 8 7 8 8 9 9 9 9 9 9 9 10 10 11 11 10 10 9 10 10 11 11 12 13 13 12 10 10 11 11 10 11 12 11 10 10 nan
nan 8 8 8 8 8 8 8 8 9 9 10 9 9 9 9 9 8 8 8 9 8 7 7 7 7 7 8 8 8 8 8 8 7 8 8 9 9 8 8 8 8 9 9 10 10 11 10 10 9 9 10 10 11 12 12 11 10 10 11 11 10 9 9 10 10 10 11 nan
nan 8 8 8 9 8 7 7 7 9 9 9 9 9 9 10 10 9 9 8 8 8 7 7 8 8 8 8 8 8 8 8 7 8 8 9 9 9 9 8 8 8 8 9 10 10 10 10 10 10 9 9 9 11 11 11 9 9 9 10 9 9 8 8 8 9 10 11 nan
nan 8 8 9 9 8 7 7 7 9 9 9 8 8 9 10 10 10 9 8 7 7 7 8 8 8 8 8 8 8 8 8 8 8 8 9 10 10 9 9 8 8 8 8 9 10 10 10 10 10 10 9 9 10 11 10 9 8 8 8 8 8 8 8 7 8 10 11 nan
nan 8 8 8 8 7 8 7 7 9 10 9 8 8 9 9 9 9 9 9 8 8 8 8 8 9 9 8 8 8 8 8 8 8 7 8 9 10 10 9 9 8 8 8 8 9 9 10 10 11 11 10 10 10 10 10 9 9 9 8 8 8 8 8 8 8 9 9 nan
nan 8 7 7 7 7 8 7 7 9 10 9 8 8 8 9 9 9 9 9 8 8 8 8 8 9 9 9 9 9 8 8 8 8 8 8 9 9 9 9 9 9 8 8 8 8 9 9 10 11 11 12 11 10 9 9 9 9 9 9 10 10 9 9 8 8 8 8 nan
nan 7 7 7 6 6 7 6 7 10 10 10 9 8 8 8 9 9 9 9 8 8 9 9 8 9 9 9 9 9 9 9 9 9 9 8 9 9 9 9 9 9 9 8 8 8 9 9 9 10 11 12 12 11 11 9 8 9 9 10 11 11 11 10 9 8 8 8 nan
nan 8 7 7 6 5 5 5 6 9 10 10 9 8 7 8 9 10 10 9 8 9 10 9 8 9 9 10 10 10 10 10 9 9 9 8 9 9 9 9 9 9 9 9 9 8 8 8 9 10 10 11 12 12 12 11 10 10 10 10 11 11 11 10 9 9 9 8 nan
nan 8 8 7 7 6 5 4 6 8 9 9 8 8 8 8 9 9 10 9 8 9 9 9 8 9 10 10 9 10 10 10 9 9 8 8 9 9 10 10 10 10 10 10 9 9 8 8 9 9 10 10 11 11 12 12 12 12 12 11 11 11 11 11 10 9 9 9 nan
nan 8 8 8 7 6 6 5 6 7 8 8 8 8 8 9 8 8 9 9 9 9 9 8 8 9 10 10 9 9 10 11 10 9 8 8 8 9 9 10 10 10 10 10 10 10 9 9 9 9 9 9 10 10 10 11 12 12 12 11 11 11 11 11 10 10 11 11 nan
nan 8 8 8 8 7 7 6 6 7 7 8 9 8 8 8 8 8 8 8 9 9 8 8 8 9 10 10 9 9 10 11 11 10 9 9 8 8 9 9 10 10 11 10 10 10 10 10 9 9 9 9 9 9 9 9 10 10 10 10 10 10 10 10 10 11 12 13 nan
nan 8 8 9 9 8 7 7 7 7 7 8 9 9 8 8 8 8 8 8 8 8 8 7 8 9 10 10 10 10 9 11 12 11 10 10 9 8 8 9 10 10 10 10 10 10 10 10 10 10 9 9 9 9 8 8 8 8 8 9 9 9 8 8 9 11 11 12 nan
nan 9 9 9 9 8 8 8 8 8 8 8 9 9 8 8 8 8 8 8 8 8 7 8 9 9 10 10 10 10 9 10 12 11 11 10 10 9 8 9 10 9 9 10 10 10 10 10 10 10 10 10 10 9 9 8 8 8 8 8 8 8 8 8 9 9 10 11 nan
nan 9 9 10 10 9 8 7 8 8 8 8 9 9 8 7 7 7 7 7 7 7 8 8 10 10 11 11 11 10 10 10 11 11 11 10 10 10 9 10 10 10 9 10 10 10 9 9 9 10 10 10 11 10 9 8 8 8 8 8 8 8 8 8 9 9 10 10 nan
nan 7 6 11 13 10 8 7 8 8 8 8 9 8 8 6 6 6 7 7 7 7 7 8 10 11 11 11 11 10 10 10 10 10 11 10 11 10 10 10 11 10 9 9 10 9 7 8 9 9 10 10 11 11 10 10 9 9 9 8 7 7 8 9 9 10 10 10 nan
nan 8 6 9 12 9 7 7 7 7 8 8 8 8 8 7 6 6 7 7 7 7 7 8 9 10 10 11 10 10 10 10 10 10 10 11 10 10 10 10 10 10 10 11 11 8 5 5 6 8 10 10 10 11 11 11 11 11 10 10 9 8 9 9 9 9 10 10 nan
nan 9 8 8 9 9 8 7 6 7 7 8 7 7 8 7 7 7 7 7 7 7 8 8 8 9 9 10 10 9 9 10 11 11 10 10 10 9 8 9 9 10 11 13 13 10 6 4 4 6 8 9 10 10 10 11 12 12 11 10 10 9 9 10 9 9 9 10 nan
nan 10 9 9 9 8 7 6 6 7 7 8 7 7 7 7 7 8 7 7 8 8 7 8 8 9 9 10 10 9 8 9 11 11 10 10 10 9 8 8 8 9 12 14 13 11 9 6 5 5 5 8 9 9 9 10 11 11 11 11 10 10 10 10 9 9 9 10 nan
nan 10 10 9 8 8 7 7 7 7 7 7 7 7 8 7 7 7 6 7 7 7 6 7 8 8 9 11 12 10 9 8 10 10 11 10 10 9 7 7 8 9 12 13 12 11 10 10 8 6 4 5 8 9 10 10 10 10 10 11 11 11 10 9 9 9 10 10 nan
nan 10 10 9 9 8 8 8 8 7 7 6 7 8 8 8 8 7 7 7 6 5 4 6 7 8 9 11 11 11 10 9 9 10 11 11 9 8 8 7 8 10 12 11 9 11 12 13 10 8 5 4 6 9 11 11 11 10 10 11 11 11 10 9 10 10 10 10 nan
nan 9 10 9 9 8 9 9 8 8 6 6 7 9 8 8 8 8 8 7 6 5 4 5 7 8 8 9 10 10 10 9 9 10 11 11 10 9 8 7 8 10 12 10 8 10 14 16 12 9 7 4 4 8 10 11 11 10 10 11 12 12 11 11 11 10 10 9 nan
nan 9 10 9 9 9 9 9 9 8 6 6 8 8 8 8 8 8 9 8 8 7 7 6 6 7 7 8 8 9 9 9 9 9 10 10 10 10 10 9 8 10 13 11 8 11 16 16 12 9 8 5 4 8 10 11 11 11 11 13 13 13 11 11 12 11 11 9 nan
nan 10 9 9 9 9 9 10 10 9 8 7 6 7 7 7 7 8 9 9 10 10 9 7 7 7 7 7 7 8 8 8 8 8 9 10 11 11 11 11 11 12 13 11 9 12 16 16 11 9 9 6 5 9 11 12 11 11 13 14 14 13 11 12 14 14 12 9 nan
nan 9 9 9 9 9 10 10 10 10 9 7 6 6 7 7 7 8 9 9 11 11 10 8 8 7 7 7 7 8 8 8 9 9 9 9 10 11 11 12 14 15 14 10 8 12 17 15 10 10 9 6 5 9 11 11 11 12 13 14 13 13 14 14 15 15 14 11 nan
nan 9 9 9 9 9 10 10 10 10 9 8 7 7 7 7 8 8 8 9 10 11 11 10 9 8 8 8 8 8 7 8 9 9 9 9 10 10 10 11 14 17 15 9 7 12 18 16 10 9 8 5 5 9 11 11 10 11 12 12 11 12 13 14 15 15 15 13 nan
nan 10 9 9 9 9 10 10 10 10 9 8 8 7 7 8 8 8 8 9 9 10 10 11 10 9 8 8 9 8 8 7 8 9 9 9 10 10 11 10 12 15 12 6 6 13 21 19 10 8 5 2 5 10 12 10 10 11 11 10 9 9 9 10 11 13 14 15 nan
nan 9 9 9 9 9 10 10 9 9 9 8 8 8 7 8 8 9 9 10 9 9 9 10 10 9 8 7 8 8 8 8 7 8 8 9 9 10 11 12 12 13 10 4 5 13 25 21 10 5 1 -0 5 10 11 9 9 10 9 7 6 6 7 7 9 10 11 14 nan
nan 10 9 9 9 9 9 9 9 9 9 8 8 8 8 8 8 9 10 10 10 9 9 9 9 8 7 6 7 7 8 8 7 7 7 8 8 10 11 12 12 11 9 5 6 14 27 22 8 2 -3 -0 7 9 9 8 9 9 8 6 5 5 6 6 7 8 9 11 nan
nan 10 9 9 9 9 9 9 9 9 9 8 8 8 8 8 9 10 10 10 10 10 9 8 9 8 8 7 7 8 7 7 7 7 7 7 8 9 10 12 11 10 9 6 6 14 27 22 7 1 -4 1 7 7 7 8 10 9 7 5 5 5 6 7 7 8 8 9 nan
nan 10 10 9 9 9 9 9 9 9 9 8 8 8 8 7 8 10 11 10 11 11 10 10 9 8 9 8 7 8 8 8 7 7 6 7 8 8 9 10 10 9 8 6 6 12 26 22 8 1 -4 -0 5 6 7 9 10 9 7 6 6 6 6 7 8 9 9 11 nan
nan 11 10 9 9 9 9 9 8 8 9 10 9 9 9 7 8 9 9 10 11 11 11 12 12 9 9 9 8 9 8 8 8 7 7 7 8 8 8 9 10 10 9 7 5 9 24 24 11 1 -6 -3 4 5 7 9 10 9 7 7 7 7 7 8 8 9 10 11 nan
nan nan nan nan nan nan nan nan nan nan nan nan nan nan nan nan nan nan nan nan nan nan nan nan nan nan nan nan nan nan nan nan nan nan nan nan nan nan nan nan nan nan nan nan nan nan nan nan nan nan nan nan nan nan nan nan nan nan nan nan nan nan nan nan nan nan nan nan nan
CAPE
6 7 7 7 5 5 6 6 5 5 5 5 5 4 4 3 1 2 2 2 0 nan nan nan nan nan nan nan nan nan nan 0 0 1 1 1 3 4 4 3 5 5 5 4 2 2 3 2 1 1 nan 0 nan nan nan 1 nan nan nan nan nan nan nan nan nan nan nan nan nan
5 7 7 6 5 5 5 5 4 4 5 6 6 6 6 3 1 0 0 3 1 0 0 0 0 nan nan nan nan nan nan nan nan 0 0 1 3 3 3 3 4 7 7 5 4 4 2 3 3 3 2 2 0 0 0 3 1 nan nan nan nan nan nan nan nan nan nan nan nan
5 5 5 5 7 7 5 4 4 4 5 6 7 6 6 4 2 0 0 1 2 1 1 0 2 0 0 0 nan nan nan nan nan 0 0 1 2 1 1 2 4 6 6 6 9 9 4 3 2 2 2 3 4 1 1 0 nan nan nan nan nan nan nan nan nan nan nan nan nan
5 5 5 5 6 6 6 5 5 5 4 4 5 5 5 3 2 0 0 0 0 0 0 2 6 6 6 2 nan nan nan nan nan 0 0 1 1 2 2 4 3 5 5 7 8 8 7 3 2 2 1 4 5 4 4 1 nan nan nan nan nan nan nan nan nan nan nan nan nan
6 6 6 6 5 5 7 7 5 5 4 4 3 2 2 2 2 2 2 1 nan nan nan 2 7 10 10 3 0 0 nan nan 0 0 0 2 2 3 3 3 3 5 5 6 8 8 10 4 1 1 2 4 5 5 5 4 0 nan nan nan nan nan nan nan nan nan nan nan nan
6 7 7 7 6 6 6 6 6 6 6 5 2 1 1 0 0 1 1 0 nan nan nan 2 5 7 7 1 0 0 0 0 0 2 2 5 2 2 2 3 6 7 7 6 9 9 12 7 1 1 2 4 8 6 6 5 2 0 0 nan nan nan nan nan nan nan nan nan nan
7 8 8 9 8 8 6 5 6 6 6 6 3 1 1 1 0 0 0 0 nan nan nan 1 1 2 2 2 1 1 1 1 2 3 3 3 2 6 6 5 8 6 6 7 6 6 7 9 4 4 3 4 4 7 7 8 3 1 1 nan nan nan nan nan nan nan nan nan nan
9 9 9 11 11 11 7 5 5 5 5 5 4 2 2 2 0 nan nan nan nan 1 1 1 1 1 1 4 6 6 5 7 4 3 3 3 3 8 8 10 10 10 10 10 6 6 6 6 5 5 6 5 5 6 6 10 7 4 4 0 nan nan nan 1 0 0 nan nan nan
10 9 9 9 10 10 8 7 5 5 4 4 6 2 2 1 2 0 0 0 nan 3 3 2 3 3 3 5 9 9 9 13 12 7 7 7 10 9 9 10 11 11 11 11 7 7 8 6 6 6 8 7 5 7 7 9 10 6 6 1 nan nan nan 0 nan nan nan nan 1
10 9 9 7 6 6 8 7 5 5 3 4 5 3 3 3 4 1 1 1 2 1 1 2 4 5 5 6 9 9 10 13 15 14 14 15 13 12 12 10 11 10 10 12 9 9 7 7 9 9 10 9 7 6 6 8 5 2 2 0 0 nan nan nan nan nan nan 1 2
9 9 9 8 6 6 10 5 6 6 4 3 5 5 5 6 5 3 3 5 5 2 2 4 5 8 8 7 8 8 10 12 13 14 14 15 13 12 12 11 12 12 12 13 10 10 10 8 10 10 12 8 6 5 5 6 4 2 2 0 1 0 0 nan nan nan nan 0 2
9 11 11 10 10 10 10 5 6 6 6 5 9 7 7 7 6 7 7 8 2 4 4 7 8 10 10 9 8 8 8 11 11 13 13 13 13 13 13 12 12 13 13 13 13 13 12 13 12 12 9 7 7 7 7 6 3 2 2 2 2 1 1 nan nan nan nan nan 2
10 11 11 11 11 11 9 8 8 8 9 8 11 11 11 7 8 9 9 6 2 6 6 8 8 10 10 10 9 9 7 9 10 9 9 10 12 13 13 13 12 13 13 13 12 12 12 13 12 12 10 7 7 7 7 6 4 3 3 2 2 1 1 1 0 0 nan nan 1
10 10 10 12 11 11 10 10 9 9 10 10 12 13 13 9 9 10 10 6 5 8 8 7 7 8 8 9 8 8 7 7 9 9 9 10 11 12 12 13 12 12 12 11 10 10 8 10 11 11 11 10 7 6 6 5 5 4 4 2 2 2 2 1 0 0 nan nan 0
8 9 9 10 10 10 9 8 8 8 7 7 6 6 6 6 7 6 6 7 7 2 2 1 1 1 1 5 7 7 7 8 8 8 8 8 9 11 11 12 12 11 11 10 10 10 8 7 7 7 9 11 9 6 6 5 5 4 4 5 5 4 4 2 1 1 1 0 0
3 5 5 5 6 6 6 7 4 4 3 2 1 1 1 0 1 2 2 1 0 nan nan nan nan nan nan nan 3 3 6 7 9 8 8 8 8 9 9 11 11 10 10 9 9 9 9 8 7 7 8 10 11 10 10 6 5 4 4 5 5 3 3 3 1 1 2 1 0
nan 0 0 1 2 2 2 2 1 1 1 0 0 nan nan nan nan nan nan nan nan nan nan nan nan nan nan nan nan nan 1 5 6 8 8 7 6 8 8 10 11 10 10 8 8 8 8 7 7 7 8 7 9 16 16 10 7 5 5 4 3 2 2 2 1 1 2 2 0
nan nan nan nan nan nan 0 1 1 1 2 4 3 0 0 nan nan nan nan nan nan nan nan nan nan nan nan nan nan nan nan nan nan 0 0 1 3 4 4 6 8 10 10 8 9 9 9 8 7 7 6 5 6 7 7 7 7 7 7 8 5 4 4 2 2 2 2 2 1
nan nan nan nan nan nan nan 0 0 0 1 3 4 3 3 2 0 nan nan nan nan nan nan nan nan nan nan nan nan nan nan nan 2 1 1 1 1 2 2 3 2 4 4 6 7 7 9 7 5 5 5 6 7 6 6 6 5 4 4 4 4 3 3 2 1 1 2 2 1
nan nan nan nan nan nan nan nan nan nan 0 1 3 3 3 2 1 1 1 0 nan nan nan nan nan nan nan nan nan nan nan nan 4 5 5 4 4 3 3 2 1 1 1 1 1 1 5 7 4 4 3 4 5 5 5 4 3 3 3 5 5 3 3 1 0 0 0 0 1
nan nan nan nan nan nan nan nan nan nan nan 0 1 2 2 1 1 1 1 0 nan nan nan nan nan nan nan nan nan nan nan nan 0 3 3 6 9 8 8 6 4 3 3 0 0 0 2 4 4 4 0 2 4 4 4 3 3 3 3 4 4 3 3 2 1 1 1 1 1
nan nan nan nan nan nan nan nan nan nan 0 0 1 1 1 1 0 1 1 0 nan nan nan nan nan nan nan nan nan nan nan nan 0 1 1 1 4 5 5 6 9 6 6 5 3 3 2 0 1 1 0 0 5 3 3 0 1 2 2 2 2 3 3 2 1 1 1 1 1
nan nan nan nan nan nan nan nan nan nan 0 0 1 1 1 0 0 0 0 nan nan nan nan nan nan nan nan nan nan nan nan nan 0 1 1 0 1 3 3 3 5 4 4 2 1 1 0 nan nan nan nan nan 3 2 2 nan nan nan nan 0 1 3 3 3 3 3 3 2 1
nan nan nan nan nan nan nan nan 0 0 0 0 1 0 0 nan nan nan nan nan nan nan nan nan nan nan nan nan nan nan nan nan nan 0 0 0 0 1 1 2 2 3 3 2 2 2 1 nan nan nan nan nan nan nan nan nan nan nan nan nan nan nan nan 1 3 3 1 1 0
nan nan nan nan nan nan nan nan nan nan nan 0 1 0 0 nan nan nan nan nan 0 nan nan nan nan nan nan nan nan nan nan nan nan nan nan 0 0 1 1 2 2 2 2 2 5 5 6 2 nan nan nan nan nan nan nan nan nan nan nan nan nan nan nan nan nan nan nan 1 nan
nan nan nan nan nan nan nan nan nan nan nan 0 2 1 1 0 nan nan nan nan nan nan nan nan nan nan nan nan nan nan nan nan nan nan nan nan 0 1 1 2 2 2 2 4 11 11 16 12 5 5 nan nan nan nan nan nan nan nan nan nan nan nan nan nan nan nan nan nan nan
nan nan nan nan nan nan nan nan nan nan nan 0 1 2 2 0 nan nan nan nan nan nan nan nan nan nan nan nan nan nan nan nan nan nan nan 0 0 1 1 2 2 4 4 9 15 15 18 19 13 13 1 nan nan nan nan nan nan nan nan nan nan nan nan nan nan nan nan nan nan
nan nan nan nan nan nan nan nan nan nan nan 0 1 1 1 1 0 nan nan nan nan nan nan nan nan nan nan nan nan nan nan nan nan nan nan 0 0 1 1 2 3 5 5 10 16 16 23 22 17 17 5 nan nan nan nan nan nan nan nan nan nan nan nan nan nan nan nan nan nan
nan nan nan nan nan nan nan nan nan nan nan nan 0 1 1 0 0 0 0 nan nan nan nan nan nan nan nan nan nan nan nan nan nan nan nan 0 0 1 1 2 2 5 5 10 17 17 25 23 18 18 9 nan nan nan nan nan nan nan nan nan nan nan nan nan nan nan nan nan nan
nan nan nan nan nan nan nan nan nan nan nan nan 0 0 0 0 0 0 0 0 nan nan nan nan nan nan nan nan nan nan nan nan nan nan nan nan nan 0 0 1 2 5 5 9 16 16 25 23 17 17 10 2 nan nan nan nan nan nan nan nan nan nan nan nan nan nan nan nan nan
nan nan nan nan nan nan nan nan nan nan nan nan nan 0 0 nan nan 0 0 1 1 0 0 nan nan nan nan nan nan nan nan nan nan nan nan nan nan 0 0 0 1 4 4 8 15 15 26 26 17 17 10 4 nan nan nan nan nan nan nan nan nan nan nan nan nan nan nan nan nan
nan nan nan nan nan nan nan nan nan nan nan nan nan 0 0 0 0 0 0 1 2 0 0 nan nan nan nan nan nan nan nan nan nan nan nan nan nan nan nan 0 0 2 2 8 16 16 27 28 16 16 9 3 nan nan nan nan nan nan nan nan nan nan nan nan nan nan nan nan nan
nan nan nan nan nan nan nan nan nan nan nan nan nan nan nan 0 1 1 1 2 1 0 0 nan nan nan nan nan nan nan nan nan nan nan nan nan nan nan nan nan nan 1 1 8 18 18 29 27 16 16 9 3 nan nan nan nan nan nan nan nan nan nan nan nan nan nan nan nan nan
nan nan nan nan nan nan nan nan nan nan nan nan nan nan nan 1 1 1 1 1 0 nan nan nan nan nan nan nan nan nan nan nan nan nan nan nan nan nan nan nan nan 0 0 5 15 15 27 26 18 18 10 2 nan nan nan nan nan nan nan nan nan nan nan nan nan nan nan nan nan
nan nan nan nan nan nan nan nan nan nan nan nan nan 0 0 1 1 0 0 0 nan nan nan nan nan nan nan nan nan nan nan nan nan nan nan nan nan nan nan nan nan 1 1 4 9 9 24 23 18 18 9 0 nan nan nan nan nan nan nan nan nan nan nan nan nan nan nan nan nan
nan nan nan nan nan nan nan nan nan nan nan nan nan 0 0 0 1 0 0 nan nan nan nan nan nan nan nan nan nan nan nan nan nan nan nan nan nan nan nan nan nan 1 1 3 5 5 21 22 18 18 7 nan nan nan nan nan nan nan nan nan nan nan nan nan nan nan nan nan nan
nan nan nan nan nan nan nan nan nan nan nan nan nan 0 0 0 0 0 0 nan 0 nan nan nan nan nan nan nan nan nan nan nan nan nan nan nan nan nan nan nan nan 1 1 2 5 5 19 21 15 15 4 nan nan nan nan nan nan nan nan nan nan nan nan nan nan nan nan nan nan
nan nan nan nan nan nan nan nan nan nan nan nan nan nan nan nan 0 0 0 0 0 nan nan nan nan nan nan nan nan nan nan nan nan nan nan nan nan nan nan nan 0 1 1 1 3 3 17 22 12 12 2 nan nan nan nan nan nan nan nan nan nan nan nan nan nan nan nan nan nan
nan nan nan nan nan nan nan nan nan nan nan nan nan nan nan nan nan 0 0 0 0 nan nan nan nan nan nan 0 nan nan 0 0 0 nan nan nan nan nan nan nan 1 1 1 0 1 1 12 23 10 10 1 nan nan nan nan nan nan nan nan nan nan nan nan nan nan nan nan nan nan
nan nan nan nan nan nan nan nan nan nan nan nan nan nan nan 0 nan nan nan nan nan nan nan nan 0 nan nan 0 0 0 0 1 1 0 0 nan nan nan nan nan 1 2 2 0 nan nan 6 26 13 13 1 nan nan nan nan nan nan nan nan nan nan nan nan nan nan nan nan nan nan
nan nan nan nan nan nan nan nan nan nan nan nan nan nan nan nan nan nan nan nan 0 0 0 0 nan 0 0 0 1 1 0 1 0 1 1 1 1 nan nan nan 0 2 2 2 nan nan 3 28 20 20 2 nan nan nan nan nan nan nan nan nan nan nan nan nan nan nan nan nan nan